EHI
0 0 0 0 0 0 0 0 0 0 0 0 0 0 0 0 0 0 0 0 0 0 0 0 0 0 0 0 0 0 0 0 0 0 0 0 0 0 0 0 0 0 0 0
0 0 0 0 0 0 0 0 0 0 0 0 0 0 0 0 0 0 0 0 0 0 0 0 0 0 0 0 0 0 0 0 0 0 0 0 0 0 0 0 0 0 0 0
0 0 0 0 0 0 0 0 0 0 0 0 0 0 0 0 0 0 0 0 0 0 0 0 0 0 0 0 0 0 0 0 0 0 0 0 0 0 0 0 0 0 0 0
0 0 0 0 0 0 0 0 0 0 0 0 0 0 0 0 0 0 0 0 0 0 0 0 0 0 0 0 0 0 0 0 0 0 0 0 0 0 0 0 0 0 0 0
0 0 0 0 0 0 0 0 0 0 0 0 0 0 0 0 0 0 0 0 0 0 0 0 0 0 0 0 0 0 0 0 0 0 0 0 0 0 0 0 0 0 0 0
0 0 0 0 0 0 0 0 0 0 0 0 0 0 0 0 0 0 0 0 0 0 0 0 0 0 0 0 0 0 0 0 0 0 0 0 0 0 0 0 0 0 0 0
0 0 0 0 0 0 0 0 0 0 0 0 0 0 0 0 0 0 0 0 0 0 0 0 0 0 0 0 0 0 0 0 0 0 0 0 0 0 0 0 0 0 0 0
0 0 0 0 0 0 0 0 0 0 0 0 0 0 0 0 0 0 0 0 0 0 0 0 0 0 0 0 0 0 0 0 0 0 0 0 0 0 0 0 0 0 0 0
0 0 0 0 0 0 0 0 0 0 0 0 0 0 0 0 0 0 0 0 0 0 0 0 0 0 0 0 0 0 0 0 0 0 0 0 0 0 0 0 0 0 0 0
0 0 0 0 0 0 0 0 0 0 0 0 0 0 0 0 0 0 0 0 0 0 0 0 0 0 0 0 0 0 0 0 0 0 0 0 0 0 0 0 0 0 0 0
0 0 0 0 0 0 0 0 0 0 0 0 0 0 0 0 0 0 0 0 0 0 0 0 0 0 0 0 0 0 0 0 0 0 0 0 0 0 0 0 0 0 0 0
0 0 0 0 0 0 0 0 0 0 0 0 0 0 0 0 0 0 0 0 0 0 0 0 0 0 0 0 0 0 0 0 0 0 0 0 0 0 0 0 0 0 0 0
0 0 0 0 0 0 0 0 0 0 0 0 0 0 0 0 0 0 0 0 0 0 0 0 0 0 0 0 0 0 0 0 0 0 0 0 0 0 0 0 0 0 0 0
0 0 0 0 0 0 0 0 0 0 0 0 0 0 0 0 0 0 0 0 0 0 0 0 0 0 0 0 0 0 0 0 0 0 0 0 0 0 0 0 0 0 0 0
0 0 0 0 0 0 0 0 0 0 0 0 0 0 0 0 0 0 0 0 0 0 0 0 0 0 0 0 0 0 0 0 0 0 0 0 0 0 0 0 0 0 0 0
0 0 0 0 0 0 0 0 0 0 0 0 0 0 0 0 0 0 0 0 0 0 0 0 0 0 0 0 0 0 0 0 0 0 0 0 0 0 0 0 0 0 0 0
0 0 0 0 0 0 0 0 0 0 0 0 0 0 0 0 0 0 0 0 0 0 0 0 0 0 0 0 0 0 0 0 0 0 0 0 0 0 0 0 0 0 0 0
0 0 0 0 0 0 0 0 0 0 0 0 0 0 0 0 0 0 0 0 0 0 0 0 0 0 0 0 0 0 0 0 0 0 0 0 0 0 0 0 0 0 0 0
0 0 0 0 0 0 0 0 0 0 0 0 0 0 0 0 0 0 0 0 0 0 0 0 0 0 0 0 0 0 0 0 0 0 0 0 0 0 0 0 0 0 0 0
0 0 0 0 0 0 0 0 0 0 0 0 0 0 0 0 0 0 0 0 0 0 0 0 0 0 0 0 0 0 0 0 0 0 0 0 0 0 0 0 0 0 0 0
0 0 0 0 0 0 0 0 0 0 0 0 0 0 0 0 0 0 0 0 0 0 0 0 0 0 0 0 0 0 0 0 0 0 0 0 0 0 0 0 0 0 0 0
0 0 0 0 0 0 0 0 0 0 0 0 0 0 0 0 0 0 0 0 0 0 0 0 0 0 0 0 0 0 0 0 0 0 0 0 0 0 0 0 0 0 0 0
0 0 0 0 0 0 0 0 0 0 0 0 0 0 0 0 0 0 0 0 0 0 0 0 0 0 0 0 0 0 0 0 0 0 0 0 0 0 0 0 0 0 0 0
0 0 0 0 0 0 0 0 0 0 0 0 0 0 0 0 0 0 0 0 0 0 0 0 0 0 0 0 0 0 0 0 0 0 0 0 0 0 0 0 0 0 0 0
0 0 0 0 0 0 0 0 0 0 0 0 0 0 0 0 0 0 0 0 0 0 0 0 0 0 0 0 0 0 0 0 0 0 0 0 0 0 0 0 0 0 0 0
0 0 0 0 0 0 0 0 0 0 0 0 0 0 0 0 0 0 0 0 0 0 0 0 0 0 0 0 0 0 0 0 0 0 0 0 0 0 0 0 0 0 0 0
Wind_Speed
4 4 7 9 9 6 5 4 6 7 5 3 8 13 16 11 8 11 11 10 10 10 5 3 3 3 3 4 6 7 9 9 8 6 5 5 4 3 2 2 3 3 3 3
3 7 9 7 5 4 4 4 6 8 4 4 7 12 13 10 10 11 11 11 12 8 5 5 4 3 4 5 6 7 9 9 8 6 4 4 4 3 2 2 3 3 3 3
11 6 6 6 5 5 5 6 7 8 6 3 5 9 9 8 6 7 9 9 9 11 11 8 7 5 5 5 7 7 8 9 8 7 6 5 4 3 2 2 2 2 3 3
8 5 5 6 7 8 7 8 7 5 3 5 2 7 9 8 9 9 10 8 9 9 9 8 8 7 6 5 5 6 7 8 8 8 8 7 5 4 3 2 2 2 3 3
9 7 8 8 9 11 8 3 4 3 3 4 2 5 11 7 10 12 9 8 8 9 10 10 9 8 6 5 6 6 7 7 7 7 8 8 5 4 3 3 4 3 3 3
5 5 8 9 6 8 5 5 4 4 3 5 6 6 10 7 9 8 7 6 7 7 8 8 6 6 5 5 6 6 8 6 6 7 7 8 8 7 6 4 3 2 2 2
4 4 3 4 5 3 5 5 2 4 1 8 3 5 13 13 8 9 11 8 6 8 9 9 10 9 8 8 7 7 8 7 6 7 7 7 8 8 7 6 4 3 2 1
9 7 9 8 9 9 7 10 8 6 5 5 3 8 12 11 9 8 8 6 5 8 9 10 11 10 10 9 9 8 8 7 7 7 7 6 7 5 4 5 4 4 3 2
12 9 4 7 6 12 8 6 7 5 2 4 7 8 12 9 8 5 4 3 6 9 10 10 9 9 10 10 9 9 9 8 7 7 7 6 6 6 5 5 4 3 2 2
10 6 3 3 4 1 8 9 6 5 4 6 7 6 7 9 9 8 6 5 6 7 8 9 9 9 9 8 7 7 8 8 7 7 7 6 6 5 5 5 5 4 3 3
8 7 3 4 8 10 6 6 6 6 5 5 5 9 8 8 8 8 8 6 6 8 9 9 9 8 8 7 8 8 8 7 7 7 6 6 5 5 5 5 4 4 3 3
8 7 5 7 5 6 8 10 10 8 7 5 4 10 7 6 7 6 7 5 4 7 8 8 8 8 8 9 9 9 8 8 8 7 7 7 6 6 5 5 4 4 4 3
11 8 5 0 1 2 5 6 8 6 6 6 7 10 5 4 6 4 5 4 4 6 7 7 8 10 10 10 10 9 9 9 8 8 8 7 6 6 5 5 4 4 3 3
9 7 9 13 8 9 7 8 9 8 7 8 11 11 9 10 10 10 7 5 5 6 8 9 9 10 10 10 10 10 9 9 9 8 8 7 7 6 5 5 4 4 3 3
8 7 6 6 5 7 8 10 12 13 13 12 11 12 15 13 12 10 8 6 5 6 8 11 11 10 10 10 10 10 10 9 9 9 8 7 6 5 5 4 4 3 3 4
7 7 7 5 6 6 6 8 11 13 12 12 11 13 13 10 7 8 9 7 8 9 9 10 10 10 12 12 12 11 10 10 9 9 8 6 6 5 4 4 4 3 4 4
8 8 7 5 4 2 8 11 12 9 9 11 15 18 12 8 10 10 9 8 9 9 8 9 10 11 11 11 11 12 11 9 9 8 7 6 6 5 4 4 3 4 4 4
11 9 5 5 5 9 10 7 11 11 11 12 10 10 9 10 8 6 6 7 8 7 6 7 7 7 7 8 8 9 9 9 9 8 7 6 5 5 4 3 4 4 3 4
7 10 6 5 6 7 8 5 8 10 11 11 13 12 8 2 1 5 5 6 6 4 4 4 5 6 7 9 9 10 9 8 8 7 6 6 5 4 4 4 5 4 3 4
4 6 7 6 6 8 9 5 6 6 8 9 11 12 7 6 3 6 1 2 2 2 3 4 6 7 8 8 9 10 9 8 7 6 5 5 4 4 4 5 4 3 4 5
6 4 6 6 6 9 9 3 8 7 10 5 8 9 9 9 7 2 2 3 3 4 5 6 7 7 7 8 9 9 8 6 5 5 4 3 3 4 4 4 3 4 4 5
11 9 8 7 6 11 6 9 11 10 4 3 4 6 8 6 3 3 3 4 5 5 6 7 8 7 6 7 8 8 6 5 4 4 3 3 3 3 2 3 4 4 4 5
9 11 10 11 10 6 8 10 7 4 5 5 5 5 7 6 5 5 4 5 5 5 6 6 8 8 5 5 6 7 5 4 4 3 2 2 2 3 3 3 4 4 4 4
4 3 6 4 7 6 6 4 4 5 5 4 5 6 8 7 6 6 6 5 5 5 6 6 8 8 5 4 4 5 4 4 4 2 2 2 3 3 3 3 4 4 5 5
8 8 5 5 5 2 5 8 7 5 4 4 4 5 7 8 7 7 6 6 6 5 5 6 7 7 6 4 4 3 3 4 3 2 3 3 3 4 4 4 5 6 6 7
7 10 11 9 10 9 8 7 8 8 7 7 6 5 4 6 7 7 6 6 6 6 6 6 6 6 5 4 3 2 3 3 3 2 3 3 3 4 4 5 6 10 12 17
Wind_Direction
144 132 190 200 196 192 189 207 252 260 258 249 257 266 275 273 257 254 250 238 233 234 228 192 175 152 138 142 148 155 154 155 152 151 149 144 144 136 121 112 113 121 121 125
114 220 211 192 187 187 199 235 263 282 271 225 267 274 272 263 246 239 240 235 228 220 202 191 174 163 158 152 150 150 154 156 159 154 146 136 132 125 116 106 90 90 107 114
188 213 183 170 177 186 211 212 236 258 308 309 304 295 284 281 259 257 245 236 224 208 200 189 178 172 159 159 159 154 153 151 148 138 123 107 95 89 96 94 85 64 88 97
214 214 159 175 195 179 233 223 221 249 289 290 329 294 285 277 286 269 253 238 226 209 191 183 178 172 171 167 152 143 143 142 144 145 146 145 144 146 153 137 118 83 76 87
217 186 176 195 203 179 211 209 192 223 225 281 279 261 280 296 280 274 262 243 229 206 188 182 179 172 161 153 147 141 135 134 140 144 145 138 128 127 121 112 108 90 70 76
212 198 191 201 197 178 154 87 66 51 78 270 233 220 276 254 245 275 282 259 229 197 180 170 159 148 145 144 142 140 135 133 137 137 139 140 138 137 133 131 125 111 89 74
213 228 209 160 129 122 131 120 4 321 300 251 229 220 253 254 252 259 275 271 224 187 174 168 166 166 163 161 158 150 143 139 142 139 141 145 145 146 148 149 148 144 136 126
180 227 202 184 168 167 178 161 175 216 236 278 271 237 255 265 269 266 268 259 201 184 182 182 180 175 171 168 164 158 153 147 149 146 145 143 142 141 144 149 149 155 159 166
179 219 220 194 173 152 157 194 179 159 211 268 267 278 297 286 289 295 291 251 204 192 188 185 180 178 174 173 173 168 160 153 155 152 145 144 145 145 147 145 143 148 158 161
151 189 224 164 107 119 159 150 124 151 205 246 268 262 252 277 289 303 293 264 228 197 189 186 183 182 180 175 168 164 162 160 157 154 153 151 151 150 146 144 152 157 161 158
143 153 157 149 179 177 141 151 153 160 177 190 252 261 232 245 273 288 287 265 222 202 195 191 187 182 174 166 166 168 166 157 157 158 153 147 149 148 146 152 163 165 166 170
150 142 184 221 223 187 175 176 160 176 211 201 217 265 264 254 273 275 285 274 225 204 196 189 182 174 174 177 176 175 172 168 166 159 152 152 150 150 155 165 172 171 176 187
149 146 146 235 243 185 198 195 190 176 165 187 207 259 282 289 292 283 278 274 234 204 192 185 182 185 188 186 183 180 177 171 161 155 153 152 157 162 169 175 177 180 186 201
141 148 179 194 198 178 189 198 188 175 197 218 225 246 275 284 286 288 283 269 236 213 198 193 194 195 193 188 184 180 177 168 161 157 158 164 172 174 177 179 183 192 198 214
140 172 191 199 178 165 187 194 190 200 208 217 231 235 248 251 255 266 272 265 242 223 209 203 201 198 190 185 182 178 173 167 162 160 165 174 172 169 171 181 193 203 214 229
150 170 172 205 203 192 210 212 203 215 222 231 247 258 250 253 256 260 256 245 240 232 221 211 203 195 191 188 182 175 172 168 161 163 169 165 163 168 180 193 201 214 235 246
155 142 152 209 197 164 244 217 205 207 208 200 225 243 251 252 246 242 244 237 236 237 224 211 204 199 193 186 177 175 168 158 158 160 161 163 167 177 193 199 207 227 241 246
153 148 148 152 136 220 237 212 201 209 225 212 222 239 237 237 246 246 232 230 238 234 223 210 197 186 173 163 157 152 148 153 154 156 161 166 171 186 196 205 225 239 242 248
149 145 139 152 198 259 285 240 186 195 244 222 222 238 242 222 322 284 237 216 225 226 213 192 170 154 145 147 146 140 143 146 150 160 168 173 176 188 202 223 239 243 245 256
93 126 136 150 181 226 238 226 168 137 260 241 206 224 216 146 197 261 237 172 165 137 133 130 124 121 131 138 138 139 145 149 161 168 171 172 177 190 212 229 242 242 244 256
132 134 155 165 202 248 244 177 123 163 236 238 191 201 180 185 204 205 115 106 114 109 111 116 117 122 132 136 134 137 143 159 161 151 153 167 186 203 220 233 240 252 261 270
163 162 173 159 193 242 209 149 181 211 212 182 181 182 180 188 152 130 127 124 122 115 115 119 117 114 118 130 132 134 148 150 138 141 155 184 207 221 225 237 257 261 264 273
187 181 176 187 207 218 179 193 207 179 188 195 180 179 165 163 171 159 147 140 133 129 127 121 122 115 111 120 130 138 148 138 135 142 178 217 237 244 241 242 257 267 262 263
231 146 147 203 244 233 219 226 217 195 201 193 174 163 161 166 166 158 151 147 142 135 131 127 125 125 125 124 122 133 138 136 139 169 216 234 247 261 259 249 244 250 255 260
181 159 162 212 247 259 247 221 210 194 182 159 151 162 167 157 159 160 157 155 150 138 130 131 134 135 137 133 127 129 137 138 156 204 235 248 248 253 261 256 245 251 241 245
178 169 172 204 204 189 219 214 184 177 185 176 158 149 154 161 158 151 151 149 143 138 131 128 128 133 138 138 138 144 152 157 176 228 247 247 251 256 258 269 280 269 267 276